TimeMDT,TemperatureF,Dew PointF,Humidity,Sea Level PressureIn,VisibilityMPH,Wind Direction,Wind SpeedMPH,Gust SpeedMPH,PrecipitationIn,Events,Conditions,WindDirDegrees,DateUTC
12:15 AM,44.6,23.0,43,30.14,10.0,SW,8.1,-,N/A,,Clear,230,2012-11-01 06:15:00
12:35 AM,44.6,21.2,39,30.14,10.0,SW,9.2,-,N/A,,Clear,230,2012-11-01 06:35:00
12:55 AM,44.6,21.2,39,30.14,10.0,SW,9.2,-,N/A,,Clear,230,2012-11-01 06:55:00
1:15 AM,44.6,19.4,37,30.13,10.0,SW,10.4,-,N/A,,Clear,220,2012-11-01 07:15:00
1:35 AM,44.6,19.4,37,30.12,10.0,SW,10.4,-,N/A,,Clear,220,2012-11-01 07:35:00
1:55 AM,44.6,19.4,37,30.10,10.0,SW,10.4,-,N/A,,Clear,230,2012-11-01 07:55:00
2:15 AM,44.6,19.4,37,30.10,10.0,WSW,13.8,-,N/A,,Clear,240,2012-11-01 08:15:00
2:35 AM,44.6,19.4,37,30.09,10.0,WSW,15.0,-,N/A,,Clear,240,2012-11-01 08:35:00
2:55 AM,44.6,19.4,37,30.08,10.0,WSW,16.1,21.9,N/A,,Clear,250,2012-11-01 08:55:00
3:15 AM,44.6,19.4,37,30.08,10.0,WSW,16.1,21.9,N/A,,Clear,250,2012-11-01 09:15:00
3:35 AM,44.6,19.4,37,30.07,10.0,WSW,16.1,19.6,N/A,,Clear,250,2012-11-01 09:35:00
3:55 AM,44.6,19.4,37,30.07,10.0,WSW,13.8,19.6,N/A,,Clear,250,2012-11-01 09:55:00
4:15 AM,44.6,19.4,37,30.06,10.0,WSW,12.7,-,N/A,,Clear,250,2012-11-01 10:15:00
4:35 AM,44.6,21.2,39,30.06,10.0,WSW,11.5,-,N/A,,Clear,250,2012-11-01 10:35:00
4:55 AM,44.6,21.2,39,30.06,10.0,West,10.4,-,N/A,,Clear,260,2012-11-01 10:55:00
5:15 AM,42.8,21.2,42,30.06,10.0,WSW,10.4,-,N/A,,Clear,250,2012-11-01 11:15:00
5:35 AM,42.8,21.2,42,30.06,10.0,WSW,9.2,-,N/A,,Clear,250,2012-11-01 11:35:00
5:55 AM,41.0,21.2,45,30.06,10.0,WSW,10.4,-,N/A,,Clear,250,2012-11-01 11:55:00
6:15 AM,41.0,21.2,45,30.06,10.0,WSW,8.1,-,N/A,,Clear,250,2012-11-01 12:15:00
6:35 AM,41.0,21.2,45,30.06,10.0,West,8.1,-,N/A,,Clear,260,2012-11-01 12:35:00
6:55 AM,41.0,21.2,45,30.06,10.0,West,8.1,-,N/A,,Clear,260,2012-11-01 12:55:00
7:15 AM,41.0,21.2,45,30.05,10.0,West,5.8,-,N/A,,Clear,260,2012-11-01 13:15:00
7:35 AM,41.0,21.2,45,30.05,10.0,WSW,5.8,-,N/A,,Clear,250,2012-11-01 13:35:00
7:55 AM,41.0,23.0,49,30.04,10.0,WSW,8.1,-,N/A,,Clear,240,2012-11-01 13:55:00
8:15 AM,39.2,23.0,52,30.03,10.0,SW,8.1,-,N/A,,Clear,230,2012-11-01 14:15:00
8:35 AM,39.2,23.0,52,30.03,10.0,WSW,15.0,19.6,N/A,,Clear,240,2012-11-01 14:35:00
8:55 AM,42.8,23.0,46,30.03,10.0,SW,12.7,18.4,N/A,,Clear,230,2012-11-01 14:55:00
9:15 AM,42.8,23.0,46,30.03,10.0,SW,11.5,19.6,N/A,,Clear,230,2012-11-01 15:15:00
9:35 AM,44.6,21.2,39,30.01,10.0,SW,15.0,20.7,N/A,,Clear,230,2012-11-01 15:35:00
9:55 AM,44.6,21.2,39,30.01,10.0,WSW,15.0,23.0,N/A,,Clear,240,2012-11-01 15:55:00
10:15 AM,44.6,21.2,39,30.02,10.0,WSW,18.4,27.6,N/A,,Clear,240,2012-11-01 16:15:00
10:35 AM,44.6,21.2,39,30.02,10.0,SW,12.7,21.9,N/A,,Clear,220,2012-11-01 16:35:00
10:55 AM,44.6,23.0,43,30.02,10.0,SW,15.0,20.7,N/A,,Clear,220,2012-11-01 16:55:00
11:15 AM,44.6,23.0,43,30.02,10.0,SW,13.8,23.0,N/A,,Clear,220,2012-11-01 17:15:00
11:35 AM,44.6,23.0,43,30.02,10.0,SW,13.8,23.0,N/A,,Clear,220,2012-11-01 17:35:00
11:55 AM,44.6,23.0,43,30.01,10.0,SW,17.3,23.0,N/A,,Clear,230,2012-11-01 17:55:00
12:15 PM,46.4,21.2,37,30.00,10.0,SW,17.3,25.3,N/A,,Clear,230,2012-11-01 18:15:00
12:35 PM,50.0,19.4,30,30.00,10.0,SW,20.7,24.2,N/A,,Clear,230,2012-11-01 18:35:00
12:55 PM,50.0,19.4,30,29.98,10.0,WSW,18.4,25.3,N/A,,Clear,240,2012-11-01 18:55:00
1:15 PM,50.0,17.6,28,29.97,10.0,WSW,19.6,28.8,N/A,,Unknown,240,2012-11-01 19:15:00
1:35 PM,50.0,17.6,28,29.96,10.0,WSW,16.1,25.3,N/A,,Clear,240,2012-11-01 19:35:00
1:55 PM,50.0,14.0,24,29.96,10.0,WSW,19.6,28.8,N/A,,Clear,240,2012-11-01 19:55:00
2:15 PM,48.2,14.0,25,29.96,10.0,WSW,18.4,26.5,N/A,,Clear,250,2012-11-01 20:15:00
2:35 PM,50.0,15.8,26,29.96,10.0,WSW,15.0,23.0,N/A,,Clear,240,2012-11-01 20:35:00
2:55 PM,50.0,14.0,24,29.96,10.0,WSW,16.1,27.6,N/A,,Clear,240,2012-11-01 20:55:00
3:15 PM,46.4,14.0,27,29.96,10.0,WSW,20.7,31.1,N/A,,Clear,240,2012-11-01 21:15:00
3:35 PM,48.2,15.8,27,29.96,10.0,WSW,18.4,25.3,N/A,,Clear,240,2012-11-01 21:35:00
3:55 PM,48.2,14.0,25,29.96,10.0,WSW,17.3,26.5,N/A,,Clear,250,2012-11-01 21:55:00
4:15 PM,46.4,14.0,27,29.97,10.0,WSW,18.4,27.6,N/A,,Clear,240,2012-11-01 22:15:00
4:35 PM,46.4,15.8,29,29.96,10.0,WSW,16.1,25.3,N/A,,Clear,250,2012-11-01 22:35:00
4:55 PM,46.4,15.8,29,29.96,10.0,WSW,12.7,21.9,N/A,,Clear,250,2012-11-01 22:55:00
5:15 PM,46.4,15.8,29,29.96,10.0,WSW,11.5,20.7,N/A,,Clear,240,2012-11-01 23:15:00
5:35 PM,46.4,15.8,29,29.96,10.0,WSW,13.8,21.9,N/A,,Clear,250,2012-11-01 23:35:00
5:55 PM,44.6,17.6,34,29.96,10.0,West,11.5,20.7,N/A,,Scattered Clouds,260,2012-11-01 23:55:00
6:15 PM,44.6,17.6,34,29.95,10.0,West,16.1,23.0,N/A,,Mostly Cloudy,260,2012-11-02 00:15:00
6:35 PM,44.6,17.6,34,29.94,10.0,West,18.4,36.8,N/A,,Scattered Clouds,260,2012-11-02 00:35:00
6:55 PM,42.8,19.4,39,29.93,10.0,West,21.9,42.6,N/A,,Clear,260,2012-11-02 00:55:00
7:15 PM,42.8,21.2,42,29.94,10.0,WSW,21.9,34.5,N/A,,Clear,250,2012-11-02 01:15:00
7:35 PM,42.8,23.0,46,29.96,10.0,WSW,19.6,28.8,N/A,,Clear,250,2012-11-02 01:35:00
7:55 PM,41.0,23.0,49,29.98,10.0,West,12.7,18.4,N/A,,Clear,270,2012-11-02 01:55:00
8:15 PM,41.0,23.0,49,29.98,10.0,West,13.8,18.4,N/A,,Clear,270,2012-11-02 02:15:00
8:35 PM,41.0,23.0,49,29.98,10.0,West,9.2,18.4,N/A,,Clear,280,2012-11-02 02:35:00
8:55 PM,41.0,24.8,53,29.98,10.0,West,8.1,17.3,N/A,,Clear,260,2012-11-02 02:55:00
9:15 PM,41.0,24.8,53,29.98,10.0,West,11.5,21.9,N/A,,Clear,280,2012-11-02 03:15:00
9:35 PM,39.2,26.6,61,29.99,10.0,West,8.1,-,N/A,,Clear,270,2012-11-02 03:35:00
9:55 PM,39.2,26.6,61,29.99,10.0,WSW,12.7,25.3,N/A,,Clear,250,2012-11-02 03:55:00
10:15 PM,37.4,26.6,65,29.98,10.0,West,9.2,24.2,N/A,,Clear,260,2012-11-02 04:15:00
10:35 PM,37.4,28.4,70,29.98,10.0,WSW,11.5,19.6,N/A,,Clear,250,2012-11-02 04:35:00
10:55 PM,37.4,26.6,65,29.99,10.0,West,8.1,-,N/A,,Clear,260,2012-11-02 04:55:00
11:15 PM,37.4,26.6,65,29.99,10.0,West,9.2,-,N/A,,Clear,260,2012-11-02 05:15:00
11:35 PM,37.4,28.4,70,29.99,10.0,West,8.1,16.1,N/A,,Clear,260,2012-11-02 05:35:00